Change the Weather History Date:

Tuesday, October 1, 2013

  Actual Average (KMSP) Record (KMSP)
Temperature  
Mean Temperature 60 °F 55 °F  
Max Temperature 75 °F 65 °F 87 °F (1897)
Min Temperature 46 °F 45 °F 24 °F (1974)
Degree Days  
Heating Degree Days 4 10  
Month to date heating degree days 10  
Since 1 July heating degree days 183  
Cooling Degree Days 0 1  
Month to date cooling degree days 1  
Year to date cooling degree days 748  
Growing Degree Days 10 (Base 50)    
Moisture  
Dew Point 41 °F    
Average Humidity 46    
Maximum Humidity 80    
Minimum Humidity 18    
Precipitation  
Precipitation 0.00 in 0.10 in 1.29 in (2009)
Month to date precipitation 0.10  
Year to date precipitation 25.35  
Snow  
Snow 0.00 in 0.00 in 0.00 in ()
Month to date snowfall 0.0  
Since 1 July snowfall T  
Since 1 September snowfall T  
Snow Depth -    
Sea Level Pressure  
Sea Level Pressure 29.80 in    
Wind  
Wind Speed 11 mph (WSW)    
Max Wind Speed 22 mph    
Max Gust Speed 26 mph    
Visibility 10 miles    
Events      
T = Trace of Precipitation, MM = Missing Value Source: NWS Daily Summary

Daily Weather History Graph

Daily Weather History Graph

Search for Another Location

Airport or City:

Trip Planner

Search our weather history database for the weather conditions in past years. The results will help you decide how hot, cold, wet, or windy it might be!

Date:

Astronomy

Oct. 01, 2013 Rise Set
Actual Time 7:08 AM CDT 6:50 PM CDT
Civil Twilight 6:39 AM CDT 7:19 PM CDT
Nautical Twilight 6:05 AM CDT 7:53 PM CDT
Astronomical Twilight 5:30 AM CDT 8:27 PM CDT
Moon 3:35 AM CDT 5:00 PM CDT
Length of Visible Light 12h 40m
Length of Day
11h 41m
Waning Crescent, 12% of the Moon is Illuminated
Oct 1
Waning Crescent
Oct 4
New
Oct 11
First Quarter
Oct 18
Full
Oct 26
Last Quarter

Hourly Weather History & Observations

Time (CDT) Temp. Dew Point Humidity Pressure Visibility Wind Dir Wind Speed Gust Speed Precip Events Conditions
12:15 AM 65.3 °F 47.3 °F 52% 29.65 in 10.0 mi South 9.2 mph - N/A   Clear
12:35 AM 65.5 °F 47.8 °F 53% 29.65 in 10.0 mi South 11.5 mph - N/A   Clear
12:55 AM 65.5 °F 47.8 °F 53% 29.65 in 10.0 mi South 10.4 mph - N/A   Clear
1:15 AM 65.5 °F 48.2 °F 54% 29.65 in 10.0 mi South 10.4 mph - N/A   Clear
1:35 AM 65.5 °F 48.2 °F 54% 29.64 in 10.0 mi South 11.5 mph - N/A   Clear
1:55 AM 64.8 °F 48.4 °F 55% 29.64 in 10.0 mi South 10.4 mph - N/A   Clear
2:15 AM 65.3 °F 48.4 °F 54% 29.64 in 10.0 mi South 11.5 mph - N/A   Clear
2:35 AM 65.5 °F 48.4 °F 54% 29.63 in 10.0 mi South 11.5 mph 17.3 mph N/A   Clear
2:55 AM 65.5 °F 48.6 °F 54% 29.64 in 10.0 mi SSW 11.5 mph - N/A   Clear
3:15 AM 65.3 °F 48.6 °F 55% 29.63 in 10.0 mi SSW 10.4 mph - N/A   Clear
3:35 AM 65.3 °F 48.9 °F 55% 29.62 in 10.0 mi SSW 11.5 mph 17.3 mph N/A   Clear
3:55 AM 64.9 °F 49.1 °F 56% 29.63 in 10.0 mi SSW 11.5 mph - N/A   Clear
4:15 AM 65.3 °F 49.1 °F 56% 29.62 in 10.0 mi SSW 13.8 mph 20.7 mph N/A   Clear
4:35 AM 65.7 °F 49.1 °F 55% 29.62 in 10.0 mi SSW 13.8 mph 20.7 mph N/A   Clear
4:55 AM 65.3 °F 49.3 °F 56% 29.62 in 10.0 mi SSW 16.1 mph 23.0 mph N/A   Clear
5:15 AM 64.8 °F 49.6 °F 58% 29.62 in 10.0 mi SSW 13.8 mph - N/A   Clear
5:35 AM 64.4 °F 50.0 °F 59% 29.63 in 10.0 mi SSW 12.7 mph 18.4 mph N/A   Clear
5:55 AM 64.2 °F 50.0 °F 60% 29.64 in 10.0 mi SSW 12.7 mph 17.3 mph N/A   Clear
6:15 AM 64.0 °F 50.2 °F 61% 29.64 in 10.0 mi SW 11.5 mph 17.3 mph N/A   Clear
6:35 AM 63.3 °F 50.4 °F 63% 29.65 in 10.0 mi SSW 9.2 mph - N/A   Clear
6:55 AM 62.2 °F 50.7 °F 66% 29.67 in 10.0 mi SW 8.1 mph - N/A   Clear
7:15 AM 61.2 °F 50.9 °F 69% 29.68 in 10.0 mi SW 5.8 mph - N/A   Clear
7:35 AM 60.8 °F 50.9 °F 70% 29.70 in 10.0 mi SW 5.8 mph - N/A   Clear
7:55 AM 62.1 °F 51.1 °F 67% 29.69 in 10.0 mi Calm Calm - N/A   Clear
8:15 AM 63.7 °F 51.8 °F 65% 29.71 in 10.0 mi WSW 6.9 mph - N/A   Clear
8:35 AM 65.3 °F 51.8 °F 62% 29.73 in 10.0 mi West 9.2 mph - N/A   Clear
8:55 AM 66.2 °F 51.4 °F 59% 29.75 in 10.0 mi WNW 11.5 mph 20.7 mph N/A   Clear
9:15 AM 67.1 °F 50.9 °F 56% 29.77 in 10.0 mi West 16.1 mph 20.7 mph N/A   Clear
9:35 AM 67.6 °F 50.2 °F 54% 29.79 in 10.0 mi WNW 15.0 mph 21.9 mph N/A   Clear
9:55 AM 68.2 °F 49.3 °F 51% 29.80 in 10.0 mi WNW 12.7 mph - N/A   Clear
10:15 AM 68.9 °F 48.0 °F 47% 29.81 in 10.0 mi WNW 12.7 mph - N/A   Clear
10:35 AM 69.3 °F 45.1 °F 42% 29.81 in 10.0 mi WNW 15.0 mph 21.9 mph N/A   Clear
10:55 AM 70.0 °F 43.7 °F 39% 29.82 in 10.0 mi NW 13.8 mph 23.0 mph N/A   Clear
11:15 AM 70.9 °F 40.8 °F 34% 29.83 in 10.0 mi NW 12.7 mph 19.6 mph N/A   Clear
11:35 AM 71.1 °F 38.1 °F 30% 29.83 in 10.0 mi NW 15.0 mph 24.2 mph N/A   Clear
11:55 AM 71.8 °F 35.8 °F 27% 29.84 in 10.0 mi NW 17.3 mph 25.3 mph N/A   Clear
12:15 PM 72.3 °F 34.9 °F 25% 29.83 in 10.0 mi WNW 15.0 mph - N/A   Clear
12:35 PM 72.9 °F 34.5 °F 25% 29.84 in 10.0 mi WNW 15.0 mph 20.7 mph N/A   Clear
12:55 PM 73.4 °F 33.1 °F 23% 29.84 in 10.0 mi NW 16.1 mph 24.2 mph N/A   Clear
1:15 PM 74.3 °F 33.1 °F 22% 29.84 in 10.0 mi West 18.4 mph 24.2 mph N/A   Clear
1:35 PM 74.1 °F 31.5 °F 21% 29.85 in 10.0 mi WNW 15.0 mph 20.7 mph N/A   Clear
1:55 PM 74.8 °F 30.4 °F 20% 29.85 in 10.0 mi West 13.8 mph 25.3 mph N/A   Clear
2:15 PM 75.2 °F 31.5 °F 20% 29.84 in 10.0 mi West 12.7 mph 20.7 mph N/A   Clear
2:35 PM 75.0 °F 28.4 °F 18% 29.85 in 10.0 mi West 21.9 mph 26.5 mph N/A   Clear
2:55 PM 75.0 °F 31.6 °F 20% 29.86 in 10.0 mi WNW 13.8 mph 21.9 mph N/A   Clear
3:15 PM 74.5 °F 30.4 °F 20% 29.86 in 10.0 mi WNW 15.0 mph 23.0 mph N/A   Clear
3:35 PM 74.3 °F 30.2 °F 20% 29.86 in 10.0 mi West 11.5 mph 21.9 mph N/A   Clear
3:55 PM 73.8 °F 28.9 °F 19% 29.86 in 10.0 mi West 16.1 mph 26.5 mph N/A   Clear
4:15 PM 73.8 °F 31.3 °F 21% 29.87 in 10.0 mi West 16.1 mph 21.9 mph N/A   Clear
4:35 PM 73.0 °F 28.8 °F 19% 29.88 in 10.0 mi West 18.4 mph 24.2 mph N/A   Clear
4:55 PM 72.7 °F 30.0 °F 21% 29.88 in 10.0 mi West 15.0 mph 20.7 mph N/A   Clear
5:15 PM 72.1 °F 30.2 °F 21% 29.89 in 10.0 mi West 15.0 mph 18.4 mph N/A   Clear
5:35 PM 71.4 °F 31.1 °F 23% 29.89 in 10.0 mi West 15.0 mph 18.4 mph N/A   Clear
5:55 PM 70.2 °F 29.8 °F 22% 29.90 in 10.0 mi West 9.2 mph 16.1 mph N/A   Clear
6:15 PM 68.2 °F 31.3 °F 25% 29.90 in 10.0 mi West 5.8 mph - N/A   Clear
6:35 PM 66.0 °F 32.0 °F 28% 29.90 in 10.0 mi West 6.9 mph - N/A   Clear
6:55 PM 63.7 °F 32.0 °F 31% 29.91 in 10.0 mi West 5.8 mph - N/A   Clear
7:15 PM 61.5 °F 32.0 °F 33% 29.92 in 10.0 mi WSW 4.6 mph - N/A   Clear
7:35 PM 59.9 °F 34.9 °F 39% 29.92 in 10.0 mi WSW 3.5 mph - N/A   Clear
7:55 PM 57.9 °F 34.9 °F 42% 29.93 in 10.0 mi SW 4.6 mph - N/A   Clear
8:15 PM 57.0 °F 37.2 °F 48% 29.94 in 10.0 mi WSW 4.6 mph - N/A   Clear
8:35 PM 55.4 °F 38.8 °F 54% 29.94 in 10.0 mi WSW 4.6 mph - N/A   Clear
8:55 PM 53.6 °F 37.9 °F 55% 29.95 in 10.0 mi WSW 4.6 mph - N/A   Clear
9:15 PM 52.3 °F 39.4 °F 61% 29.95 in 10.0 mi West 3.5 mph - N/A   Clear
9:35 PM 51.3 °F 38.3 °F 61% 29.95 in 10.0 mi Calm Calm - N/A   Clear
9:55 PM 50.7 °F 39.7 °F 66% 29.96 in 10.0 mi Calm Calm - N/A   Clear
10:15 PM 49.1 °F 41.4 °F 75% 29.96 in 10.0 mi Calm Calm - N/A   Clear
10:35 PM 50.0 °F 39.4 °F 67% 29.97 in 10.0 mi Calm Calm - N/A   Clear
10:55 PM 47.5 °F 40.1 °F 76% 29.98 in 10.0 mi Calm Calm - N/A   Clear
11:15 PM 46.6 °F 40.3 °F 79% 29.98 in 10.0 mi Calm Calm - N/A   Clear
11:35 PM 46.8 °F 40.8 °F 80% 29.99 in 10.0 mi Calm Calm - N/A   Clear
11:55 PM 46.4 °F 40.3 °F 79% 29.99 in 10.0 mi Calm Calm - N/A   Clear